Weather History for TAMWORTH AIRPOR, Australia

Change the Weather History Date:

Monday, August 19, 2013

  Actual Average Record
Temperature  
Mean Temperature 54 °F -  
Max Temperature 68 °F - - ()
Min Temperature 41 °F - - ()
Degree Days  
Heating Degree Days 10    
Growing Degree Days 4 (Base 50)    
Moisture  
Dew Point 33 °F    
Average Humidity 54    
Maximum Humidity 93    
Minimum Humidity 20    
Precipitation  
Precipitation 0.00 in - - ()
Sea Level Pressure  
Sea Level Pressure 29.96 in    
Wind  
Wind Speed 7 mph ()    
Max Wind Speed 22 mph    
Max Gust Speed 32 mph    
Visibility 6.2 miles    
Events      
T = Trace of Precipitation, MM = Missing Value Source: Averaged Metar Reports

Daily Weather History Graph

Daily Weather History Graph

Search for Another Location

Airport:

Trip Planner

Search our weather history database for the weather conditions in past years. The results will help you decide how hot, cold, wet, or windy it might be!

Date:

Astronomy

Aug. 19, 2013 Rise Set
Actual Time 6:27 AM AEST 5:33 PM AEST
Civil Twilight 6:03 AM AEST 5:57 PM AEST
Nautical Twilight 5:34 AM AEST 6:26 PM AEST
Astronomical Twilight 5:06 AM AEST 6:54 PM AEST
Moon 3:36 PM AEST 4:28 AM AEST
Length of Visible Light 11h 54m
Length of Day
11h 05m
Waxing Gibbous, 94% of the Moon is Illuminated
Aug 19
Waxing Gibbous
Aug 21
Full
Aug 28
Last Quarter
Sep 5
New
Sep 13
First Quarter

Hourly Weather History & Observations

Time (AEST) Temp. Windchill Dew Point Humidity Pressure Visibility Wind Dir Wind Speed Gust Speed Precip Events Conditions
12:00 AM 51 °F - 32 °F 37%  in - ENE 4.6 mph - -  
12:00 AM 37.4 °F - 30.2 °F 75% 30.04 in 6.2 mi Calm Calm - N/A   Unknown
12:30 AM 33.8 °F - 30.2 °F 87% 30.04 in 6.2 mi South 2.3 mph - N/A   Unknown
1:00 AM 39.2 °F - 35.6 °F 87% 30.01 in 6.2 mi Calm Calm - N/A   Unknown
1:30 AM 35.6 °F 31.7 °F 32.0 °F 87% 30.01 in 6.2 mi ESE 4.6 mph - N/A   Unknown
2:00 AM 35.6 °F 31.7 °F 32.0 °F 87% 30.01 in 6.2 mi SE 4.6 mph - N/A   Unknown
2:30 AM 35.6 °F 29.9 °F 32.0 °F 87% 30.01 in 6.2 mi ESE 6.9 mph - N/A   Unknown
3:00 AM 54 °F - 29 °F 26%  in - North 5.8 mph - -  
3:00 AM 33.8 °F 29.6 °F 28.4 °F 81% 30.01 in 6.2 mi ESE 4.6 mph - N/A   Unknown
3:30 AM 32.0 °F - 30.2 °F 93% 30.01 in 6.2 mi Calm Calm - N/A   Unknown
4:00 AM 32.0 °F 27.5 °F 30.2 °F 93% 30.01 in 6.2 mi SW 4.6 mph - N/A   Unknown
4:30 AM 32.0 °F 27.5 °F 28.4 °F 87% 30.01 in 6.2 mi ESE 4.6 mph - N/A   Unknown
5:00 AM 33.8 °F 27.7 °F 30.2 °F 87% 30.01 in 6.2 mi ESE 6.9 mph - N/A   Unknown
5:30 AM 32.0 °F 27.5 °F 28.4 °F 87% 30.01 in 6.2 mi South 4.6 mph - N/A   Unknown
6:00 AM 44 °F - 32 °F 52%  in - SE 4.6 mph - -  
6:00 AM 32.0 °F 27.5 °F 30.2 °F 93% 30.01 in 6.2 mi ESE 4.6 mph - N/A   Unknown
6:30 AM 32.0 °F 27.5 °F 28.4 °F 87% 30.01 in 6.2 mi SSE 4.6 mph - N/A   Unknown
7:00 AM 33.8 °F 27.7 °F 32.0 °F 93% 30.01 in 6.2 mi SE 6.9 mph - N/A   Unknown
7:30 AM 39.2 °F 37.0 °F 35.6 °F 87% 30.01 in 6.2 mi SSE 3.5 mph - N/A   Unknown
8:00 AM 42.8 °F - 37.4 °F 81% 30.01 in 6.2 mi Calm Calm - N/A   Unknown
8:30 AM 48.2 °F - 41.0 °F 76% 30.01 in 6.2 mi East 4.6 mph - N/A   Unknown
9:00 AM 61 °F - 35 °F 26%  in - ENE 5.8 mph - -  
9:00 AM 51.8 °F - 39.2 °F 62% 30.01 in 6.2 mi Calm Calm - N/A   Unknown
9:30 AM 55.4 °F - 39.2 °F 54% 30.01 in 6.2 mi NNE 3.5 mph - N/A   Unknown
10:00 AM 59.0 °F - 37.4 °F 45% 30.01 in 6.2 mi North 6.9 mph - N/A   Unknown
10:30 AM 60.8 °F - 30.2 °F 31% 29.98 in 6.2 mi NNW 15.0 mph - N/A   Unknown
11:00 AM 64.4 °F - 32.0 °F 30% 29.98 in 6.2 mi NW 13.8 mph - N/A   Unknown
11:30 AM 64.4 °F - 32.0 °F 30% 29.95 in 6.2 mi WNW 16.1 mph - N/A   Unknown
12:00 PM 67 °F - 37 °F 22%  in - West 10.4 mph - -  
12:00 PM 66.2 °F - 33.8 °F 30% 29.95 in 6.2 mi WNW 13.8 mph - N/A   Unknown
12:30 PM 68.0 °F - 32.0 °F 26% 29.92 in 6.2 mi NW 18.4 mph - N/A   Unknown
1:00 PM 66.2 °F - 30.2 °F 26% 29.89 in 6.2 mi WNW 17.3 mph - N/A   Unknown
1:30 PM 68.0 °F - 30.2 °F 24% 29.89 in 6.2 mi WNW 20.7 mph - N/A   Unknown
2:00 PM 68.0 °F - 28.4 °F 23% 29.89 in 6.2 mi WNW 19.6 mph - N/A   Unknown
2:30 PM 66.2 °F - 28.4 °F 24% 29.86 in 6.2 mi WNW 19.6 mph - N/A   Unknown
3:00 PM 62 °F - 31 °F 20%  in - West 13.8 mph - -  
3:01 PM 68.0 °F - 28.4 °F 23% 29.86 in 6.2 mi NW 20.7 mph 32.2 mph N/A   Unknown
3:30 PM 66.2 °F - 30.2 °F 26% 29.86 in 6.2 mi WNW 21.9 mph - N/A   Scattered Clouds
4:00 PM 64.4 °F - 30.2 °F 28% 29.86 in 6.2 mi WNW 17.3 mph - N/A   Unknown
4:30 PM 62.6 °F - 30.2 °F 30% 29.86 in 6.2 mi West 16.1 mph - N/A   Unknown
5:00 PM 60.8 °F - 32.0 °F 34% 29.86 in 6.2 mi West 11.5 mph - N/A   Scattered Clouds
5:30 PM 59.0 °F - 32.0 °F 36% 29.86 in 6.2 mi West 12.7 mph - N/A   Unknown
6:00 PM 55 °F - 31 °F 28%  in - West 12.7 mph - -  
6:00 PM 57.2 °F - 32.0 °F 38% 29.89 in 6.2 mi WNW 9.2 mph - N/A   Unknown
6:30 PM 53.6 °F - 35.6 °F 51% 29.89 in 6.2 mi West 9.2 mph - N/A   Scattered Clouds
7:00 PM 55.4 °F - 39.2 °F 54% 29.89 in 6.2 mi West 10.4 mph - N/A   Unknown
7:30 PM 57.2 °F - 39.2 °F 51% 29.92 in 6.2 mi West 11.5 mph - N/A   Scattered Clouds
8:00 PM 55.4 °F - 39.2 °F 54% 29.92 in 6.2 mi WSW 12.7 mph - N/A   Unknown
8:30 PM 55.4 °F - 39.2 °F 54% 29.92 in 6.2 mi WSW 16.1 mph - N/A   Scattered Clouds
9:00 PM 50 °F - 33 °F 39%  in - WNW 8.1 mph - -  
9:00 PM 55.4 °F - 39.2 °F 54% 29.92 in 6.2 mi WSW 19.6 mph - N/A   Scattered Clouds
9:30 PM 53.6 °F - 37.4 °F 54% 29.95 in 6.2 mi WSW 16.1 mph - N/A   Mostly Cloudy
10:00 PM 51.8 °F - 37.4 °F 58% 29.95 in 6.2 mi WSW 11.5 mph - N/A   Mostly Cloudy
10:30 PM 51.8 °F - 37.4 °F 58% 29.95 in 6.2 mi WSW 11.5 mph - N/A   Mostly Cloudy
11:00 PM 50.0 °F - 35.6 °F 58% 29.95 in 6.2 mi WSW 6.9 mph - N/A   Overcast
11:30 PM 50.0 °F - 35.6 °F 58% 29.98 in 6.2 mi SSW 1.2 mph - N/A   Overcast